RYR2MJ EPKK-LIPH

Flight info

Callsign RYR2MJ
Flight time 1h 15m
Altitude 36000
Route TUSIN5J TUSIN DCT MIKOV DCT VATET DCT OBEDI DCT DETSA DCT BAKOR N503 VIC VIC2C
Aircraft B738/M-SDE2E3FGHIRWXY/LB1

Departure

Time 2026-04-24 15:50
Airport Kraków John Paul II International Airport (EPKK)

Arrival

Time 2026-04-24 17:05
Airport Treviso Airport (LIPH)
Time Latitude Longitude Altitude Speed Heading
2026-04-24 15:20 50.07568 19.79644 790 ft 0 kts 258°
2026-04-24 15:41 50.07569 19.79649 790 ft 3 kts 258°
2026-04-24 15:41 50.07577 19.79707 791 ft 1 kts 275°
2026-04-24 15:41 50.07575 19.79724 790 ft 0 kts 282°
2026-04-24 15:41 50.07578 19.79728 790 ft 4 kts 316°
2026-04-24 15:42 50.07582 19.79725 790 ft 0 kts 337°
2026-04-24 15:44 50.07599 19.79717 790 ft 4 kts 346°
2026-04-24 15:45 50.07629 19.79706 790 ft 4 kts 348°
2026-04-24 15:45 50.07659 19.79698 790 ft 4 kts 354°
2026-04-24 15:45 50.07688 19.79710 790 ft 4 kts 34°
2026-04-24 15:45 50.07702 19.79754 790 ft 5 kts 84°
2026-04-24 15:46 50.07705 19.79811 790 ft 7 kts 83°
2026-04-24 15:46 50.07720 19.79920 790 ft 14 kts 77°
2026-04-24 15:46 50.07745 19.80102 790 ft 20 kts 77°
2026-04-24 15:46 50.07771 19.80285 790 ft 11 kts 78°
2026-04-24 15:47 50.07817 19.80347 790 ft 7 kts 359°
2026-04-24 15:47 50.07848 19.80335 790 ft 0 kts 346°
2026-04-24 15:48 50.07850 19.80334 790 ft 2 kts 346°
2026-04-24 15:48 50.07895 19.80319 790 ft 11 kts 348°
2026-04-24 15:49 50.07979 19.80288 789 ft 10 kts 340°
2026-04-24 15:49 50.08014 19.80201 789 ft 10 kts 266°
2026-04-24 15:49 50.07999 19.80095 790 ft 10 kts 257°
2026-04-24 15:49 50.07983 19.79978 789 ft 15 kts 257°
2026-04-24 15:50 50.07916 19.79498 790 ft 87 kts 258°
2026-04-24 15:50 50.07731 19.78170 806 ft 160 kts 259°
2026-04-24 15:50 50.07478 19.76431 1581 ft 169 kts 261°
2026-04-24 15:50 50.07223 19.74613 2630 ft 170 kts 262°
2026-04-24 15:51 50.06970 19.72795 3535 ft 184 kts 262°
2026-04-24 15:51 50.06688 19.70704 4011 ft 211 kts 261°
2026-04-24 15:51 50.06359 19.68330 4293 ft 233 kts 260°
2026-04-24 15:51 50.06007 19.65817 4976 ft 244 kts 260°
2026-04-24 15:52 50.05632 19.63138 5594 ft 260 kts 259°
2026-04-24 15:52 50.05227 19.60362 6447 ft 265 kts 260°
2026-04-24 15:52 50.04831 19.57596 7390 ft 267 kts 260°
2026-04-24 15:52 50.04430 19.54754 8168 ft 275 kts 262°
2026-04-24 15:53 50.04035 19.51807 8995 ft 279 kts 261°
2026-04-24 15:53 50.03603 19.48870 9988 ft 280 kts 261°
2026-04-24 15:53 50.03169 19.45846 10481 ft 297 kts 261°
2026-04-24 15:53 50.02718 19.42580 10732 ft 320 kts 263°
2026-04-24 15:54 50.02698 19.39115 11323 ft 323 kts 281°
2026-04-24 15:54 50.03062 19.35642 12109 ft 327 kts 282°
2026-04-24 15:54 50.03441 19.32142 12899 ft 331 kts 281°
2026-04-24 15:54 50.03816 19.28634 13658 ft 336 kts 281°
2026-04-24 15:55 50.04192 19.25026 14347 ft 340 kts 281°
2026-04-24 15:55 50.04565 19.21384 14809 ft 341 kts 281°
2026-04-24 15:55 50.04932 19.17733 15011 ft 344 kts 281°
2026-04-24 15:55 50.05300 19.14047 15002 ft 344 kts 281°
2026-04-24 15:56 50.05662 19.10377 15014 ft 342 kts 281°
2026-04-24 15:56 50.06022 19.06720 15013 ft 342 kts 281°
2026-04-24 15:56 50.06380 19.03053 15004 ft 342 kts 281°
2026-04-24 15:56 50.06733 18.99448 15009 ft 342 kts 281°
2026-04-24 15:57 50.07089 18.95796 15011 ft 341 kts 281°
2026-04-24 15:57 50.07445 18.92139 15009 ft 342 kts 281°
2026-04-24 15:57 50.07684 18.89670 15006 ft 342 kts 281°
2026-04-24 15:57 50.08142 18.84828 15004 ft 342 kts 278°
2026-04-24 15:58 50.07970 18.81120 15003 ft 349 kts 257°
2026-04-24 15:58 50.06913 18.77687 15029 ft 360 kts 238°
2026-04-24 15:58 50.05131 18.74868 15508 ft 374 kts 218°
2026-04-24 15:58 50.02903 18.72824 15979 ft 379 kts 212°
2026-04-24 15:59 50.00578 18.70896 15998 ft 378 kts 211°
2026-04-24 15:59 49.98263 18.68981 15999 ft 375 kts 212°
2026-04-24 15:59 49.95991 18.67025 16004 ft 374 kts 213°
2026-04-24 15:59 49.93723 18.65037 16012 ft 374 kts 213°
2026-04-24 16:00 49.91452 18.63047 16025 ft 378 kts 213°
2026-04-24 16:00 49.89134 18.61060 16525 ft 383 kts 212°
2026-04-24 16:00 49.86804 18.59083 17362 ft 381 kts 212°
2026-04-24 16:00 49.84548 18.56945 18090 ft 380 kts 224°
2026-04-24 16:01 49.82781 18.53936 18680 ft 378 kts 235°
2026-04-24 16:01 49.81135 18.50732 19266 ft 382 kts 235°
2026-04-24 16:01 49.79497 18.47544 19856 ft 385 kts 235°
2026-04-24 16:01 49.77818 18.44297 20455 ft 388 kts 235°
2026-04-24 16:02 49.76117 18.41032 21050 ft 391 kts 235°
2026-04-24 16:02 49.74399 18.37752 21645 ft 394 kts 235°
2026-04-24 16:02 49.72659 18.34445 22203 ft 398 kts 235°
2026-04-24 16:02 49.70902 18.31117 22746 ft 401 kts 234°
2026-04-24 16:03 49.69131 18.27771 23298 ft 404 kts 234°
2026-04-24 16:03 49.67344 18.24401 23812 ft 407 kts 234°
2026-04-24 16:03 49.65543 18.21011 24250 ft 410 kts 234°
2026-04-24 16:03 49.63725 18.17592 24697 ft 413 kts 235°
2026-04-24 16:04 49.61895 18.14155 25145 ft 416 kts 235°
2026-04-24 16:04 49.60074 18.10741 25560 ft 419 kts 235°
2026-04-24 16:04 49.58218 18.07263 25987 ft 422 kts 235°
2026-04-24 16:04 49.56345 18.03760 26386 ft 425 kts 235°
2026-04-24 16:05 49.52560 17.96692 27220 ft 430 kts 235°
2026-04-24 16:05 49.50645 17.93126 27601 ft 433 kts 235°
2026-04-24 16:06 49.46783 17.85944 28327 ft 439 kts 235°
2026-04-24 16:06 49.44827 17.82314 28666 ft 443 kts 235°
2026-04-24 16:06 49.40873 17.74993 29393 ft 448 kts 235°
2026-04-24 16:07 49.38877 17.71304 29753 ft 450 kts 235°
2026-04-24 16:07 49.36872 17.67605 30088 ft 453 kts 235°
2026-04-24 16:07 49.32843 17.60186 30639 ft 458 kts 235°
2026-04-24 16:08 49.30799 17.56430 30915 ft 460 kts 235°
2026-04-24 16:08 49.26663 17.48845 31330 ft 467 kts 235°
2026-04-24 16:09 49.22505 17.41250 32097 ft 464 kts 235°
2026-04-24 16:09 49.20432 17.37471 32476 ft 463 kts 235°
2026-04-24 16:09 49.19057 17.34967 32688 ft 464 kts 235°
2026-04-24 16:09 49.16280 17.29913 33108 ft 464 kts 235°
2026-04-24 16:10 49.10071 17.18648 34027 ft 465 kts 235°
2026-04-24 16:11 49.05897 17.11105 34589 ft 464 kts 235°
2026-04-24 16:11 49.03819 17.07358 34915 ft 463 kts 235°
2026-04-24 16:11 49.01741 17.03616 35202 ft 462 kts 234°
2026-04-24 16:12 48.97587 16.96148 35702 ft 462 kts 234°
2026-04-24 16:12 48.95509 16.92421 35986 ft 461 kts 234°
2026-04-24 16:13 48.89247 16.81218 36000 ft 465 kts 234°
2026-04-24 16:14 48.80950 16.66449 36007 ft 458 kts 234°
2026-04-24 16:14 48.75204 16.54993 36007 ft 453 kts 241°
2026-04-24 16:15 48.70508 16.43996 36021 ft 455 kts 242°
2026-04-24 16:16 48.64850 16.30982 36027 ft 458 kts 241°
2026-04-24 16:17 48.56569 16.12276 36026 ft 460 kts 240°
2026-04-24 16:18 48.48844 15.94941 36026 ft 461 kts 240°
2026-04-24 16:19 48.44077 15.84298 36030 ft 460 kts 240°
2026-04-24 16:20 48.38703 15.72350 36030 ft 459 kts 239°
2026-04-24 16:20 48.33349 15.60495 36029 ft 458 kts 239°
2026-04-24 16:21 48.27967 15.48633 36031 ft 458 kts 239°
2026-04-24 16:22 48.23791 15.39463 36043 ft 458 kts 239°
2026-04-24 16:22 48.19003 15.28988 36049 ft 457 kts 239°
2026-04-24 16:23 48.15399 15.21131 36053 ft 458 kts 239°
2026-04-24 16:24 48.09978 15.09352 36054 ft 458 kts 239°
2026-04-24 16:24 48.06355 15.01510 36069 ft 458 kts 238°
2026-04-24 16:25 48.02752 14.93733 36071 ft 459 kts 238°
2026-04-24 16:25 47.99111 14.85896 36067 ft 460 kts 238°
2026-04-24 16:26 47.93635 14.74152 36079 ft 460 kts 238°
2026-04-24 16:27 47.88169 14.62481 36085 ft 460 kts 238°
2026-04-24 16:27 47.84500 14.54673 36082 ft 461 kts 238°
2026-04-24 16:28 47.80817 14.46858 36072 ft 461 kts 237°
2026-04-24 16:28 47.75316 14.35226 36077 ft 460 kts 237°
2026-04-24 16:29 47.71636 14.27464 36089 ft 459 kts 237°
2026-04-24 16:30 47.64257 14.11988 36091 ft 459 kts 237°
2026-04-24 16:30 47.60557 14.04254 36087 ft 460 kts 237°
2026-04-24 16:31 47.57219 13.96223 36088 ft 457 kts 243°
2026-04-24 16:31 47.54196 13.88144 36089 ft 457 kts 243°
2026-04-24 16:32 47.51053 13.79835 36091 ft 458 kts 243°
2026-04-24 16:32 47.47900 13.71658 36086 ft 458 kts 242°
2026-04-24 16:33 47.44725 13.63490 36085 ft 458 kts 242°
2026-04-24 16:33 47.41549 13.55342 36093 ft 458 kts 242°
2026-04-24 16:34 47.38384 13.47241 36085 ft 459 kts 242°
2026-04-24 16:34 47.35187 13.39077 36082 ft 460 kts 242°
2026-04-24 16:35 47.31925 13.30987 36077 ft 460 kts 238°
2026-04-24 16:35 47.28207 13.23342 35952 ft 461 kts 235°
2026-04-24 16:36 47.26278 13.19543 35469 ft 464 kts 234°
2026-04-24 16:36 47.24380 13.15800 34999 ft 463 kts 235°
2026-04-24 16:36 47.22465 13.12002 34520 ft 463 kts 235°
2026-04-24 16:36 47.20554 13.08181 34042 ft 464 kts 235°
2026-04-24 16:37 47.18637 13.04333 33502 ft 465 kts 235°
2026-04-24 16:37 47.16737 13.00508 32985 ft 465 kts 235°
2026-04-24 16:37 47.14832 12.96674 32434 ft 465 kts 235°
2026-04-24 16:37 47.12915 12.92821 31941 ft 465 kts 235°
2026-04-24 16:38 47.11007 12.88990 31441 ft 465 kts 234°
2026-04-24 16:38 47.09102 12.85171 30953 ft 467 kts 234°
2026-04-24 16:38 47.07175 12.81314 30458 ft 472 kts 234°
2026-04-24 16:38 47.05214 12.77397 29950 ft 475 kts 234°
2026-04-24 16:39 47.03286 12.73550 29404 ft 474 kts 234°
2026-04-24 16:39 47.01332 12.69660 28864 ft 474 kts 234°
2026-04-24 16:39 46.99379 12.65776 28319 ft 473 kts 234°
2026-04-24 16:39 46.97427 12.61900 27803 ft 473 kts 234°
2026-04-24 16:40 46.95473 12.58023 27276 ft 473 kts 234°
2026-04-24 16:40 46.93515 12.54145 26772 ft 476 kts 234°
2026-04-24 16:40 46.91541 12.50240 26278 ft 480 kts 234°
2026-04-24 16:40 46.89552 12.46309 25802 ft 480 kts 234°
2026-04-24 16:41 46.87607 12.42474 25310 ft 471 kts 234°
2026-04-24 16:41 46.85676 12.38669 24834 ft 462 kts 234°
2026-04-24 16:41 46.83785 12.34946 24354 ft 447 kts 234°
2026-04-24 16:41 46.81961 12.31363 23904 ft 433 kts 233°
2026-04-24 16:42 46.80223 12.27861 23381 ft 420 kts 238°
2026-04-24 16:42 46.78807 12.24204 22843 ft 408 kts 244°
2026-04-24 16:42 46.77559 12.20571 22527 ft 393 kts 245°
2026-04-24 16:42 46.76375 12.17071 22192 ft 377 kts 245°
2026-04-24 16:43 46.75233 12.13712 21910 ft 363 kts 244°
2026-04-24 16:43 46.74120 12.10471 21633 ft 352 kts 245°
2026-04-24 16:43 46.73024 12.07332 21187 ft 353 kts 244°
2026-04-24 16:43 46.71910 12.04145 20974 ft 354 kts 244°
2026-04-24 16:44 46.70792 12.00942 20734 ft 356 kts 244°
2026-04-24 16:44 46.69667 11.97728 20497 ft 356 kts 244°
2026-04-24 16:44 46.68538 11.94512 20232 ft 355 kts 244°
2026-04-24 16:44 46.67418 11.91331 20063 ft 355 kts 244°
2026-04-24 16:45 46.66290 11.88130 20040 ft 355 kts 244°
2026-04-24 16:45 46.65168 11.84951 20025 ft 351 kts 244°
2026-04-24 16:45 46.64073 11.81856 20027 ft 347 kts 244°
2026-04-24 16:45 46.62966 11.78731 20036 ft 348 kts 244°
2026-04-24 16:46 46.61705 11.75715 20010 ft 352 kts 229°
2026-04-24 16:46 46.59766 11.73576 20031 ft 353 kts 205°
2026-04-24 16:46 46.57414 11.72599 20010 ft 353 kts 184°
2026-04-24 16:46 46.54972 11.72408 19898 ft 353 kts 181°
2026-04-24 16:47 46.53979 11.72362 19635 ft 357 kts 181°
2026-04-24 16:47 46.53166 11.72327 19513 ft 357 kts 181°
2026-04-24 16:47 46.50688 11.72230 19137 ft 356 kts 181°
2026-04-24 16:47 46.48216 11.72123 18776 ft 354 kts 181°
2026-04-24 16:48 46.45793 11.72000 18416 ft 353 kts 181°
2026-04-24 16:48 46.43342 11.71860 18032 ft 352 kts 182°
2026-04-24 16:48 46.40902 11.71716 17654 ft 350 kts 182°
2026-04-24 16:48 46.38481 11.71572 17305 ft 348 kts 182°
2026-04-24 16:49 46.36074 11.71439 17054 ft 342 kts 181°
2026-04-24 16:49 46.33744 11.71319 17014 ft 330 kts 181°
2026-04-24 16:49 46.31458 11.71197 16705 ft 329 kts 181°
2026-04-24 16:49 46.29174 11.71077 16338 ft 329 kts 181°
2026-04-24 16:50 46.27658 11.70998 16090 ft 330 kts 181°
2026-04-24 16:50 46.24598 11.70840 15602 ft 333 kts 181°
2026-04-24 16:50 46.22282 11.70718 15245 ft 333 kts 181°
2026-04-24 16:50 46.19965 11.70594 14885 ft 334 kts 181°
2026-04-24 16:51 46.17648 11.70472 14530 ft 333 kts 181°
2026-04-24 16:51 46.15335 11.70349 14195 ft 332 kts 182°
2026-04-24 16:51 46.13030 11.70228 13812 ft 331 kts 181°
2026-04-24 16:51 46.10734 11.70108 13450 ft 330 kts 181°
2026-04-24 16:52 46.08430 11.69987 12988 ft 332 kts 182°
2026-04-24 16:52 46.06112 11.69861 12534 ft 335 kts 182°
2026-04-24 16:52 46.03806 11.69741 12050 ft 337 kts 182°
2026-04-24 16:52 46.01482 11.69618 11568 ft 332 kts 182°
2026-04-24 16:53 45.99197 11.69497 11101 ft 325 kts 182°
2026-04-24 16:53 45.96960 11.69381 10594 ft 318 kts 182°
2026-04-24 16:53 45.94775 11.69265 10201 ft 312 kts 182°
2026-04-24 16:53 45.92634 11.69150 10062 ft 302 kts 182°
2026-04-24 16:54 45.90544 11.69040 10046 ft 296 kts 182°
2026-04-24 16:54 45.88554 11.68930 10031 ft 278 kts 182°
2026-04-24 16:54 45.86626 11.68826 9752 ft 277 kts 182°
2026-04-24 16:54 45.84732 11.68725 9481 ft 274 kts 182°
2026-04-24 16:55 45.82812 11.68622 9316 ft 285 kts 182°
2026-04-24 16:55 45.80796 11.68512 9015 ft 292 kts 182°
2026-04-24 16:55 45.78755 11.68402 8697 ft 292 kts 182°
2026-04-24 16:55 45.76744 11.68295 8344 ft 287 kts 182°
2026-04-24 16:56 45.74771 11.68191 8016 ft 280 kts 182°
2026-04-24 16:56 45.72842 11.68088 7677 ft 274 kts 182°
2026-04-24 16:56 45.70953 11.67987 7353 ft 269 kts 182°
2026-04-24 16:56 45.69105 11.67889 7038 ft 264 kts 183°
2026-04-24 16:57 45.67288 11.67792 6727 ft 259 kts 183°
2026-04-24 16:57 45.65500 11.67697 6414 ft 255 kts 183°
2026-04-24 16:57 45.63777 11.67845 6060 ft 252 kts 162°
2026-04-24 16:57 45.62281 11.69077 5767 ft 247 kts 143°
2026-04-24 16:58 45.60928 11.70566 5439 ft 244 kts 143°
2026-04-24 16:58 45.59587 11.72042 5133 ft 244 kts 143°
2026-04-24 16:58 45.58256 11.73496 5030 ft 237 kts 143°
2026-04-24 16:58 45.56970 11.74896 5008 ft 228 kts 143°
2026-04-24 16:59 45.55719 11.76261 5004 ft 226 kts 141°
2026-04-24 16:59 45.54815 11.78045 4999 ft 225 kts 104°
2026-04-24 16:59 45.55220 11.82468 5023 ft 232 kts 80°
2026-04-24 17:00 45.55620 11.84700 4785 ft 240 kts 68°
2026-04-24 17:00 45.56847 11.89062 4281 ft 231 kts 69°
2026-04-24 17:00 45.57402 11.91189 4016 ft 225 kts 69°
2026-04-24 17:01 45.58468 11.95248 3417 ft 211 kts 70°
2026-04-24 17:01 45.58974 11.97170 3144 ft 204 kts 70°
2026-04-24 17:02 45.59941 12.00845 2631 ft 192 kts 71°
2026-04-24 17:02 45.60405 12.02604 2383 ft 186 kts 70°
2026-04-24 17:02 45.60843 12.04264 2144 ft 176 kts 70°
2026-04-24 17:02 45.61255 12.05822 1947 ft 159 kts 71°
2026-04-24 17:03 45.61999 12.08647 1518 ft 148 kts 70°
2026-04-24 17:03 45.62364 12.10034 1324 ft 151 kts 71°
2026-04-24 17:03 45.62737 12.11432 1116 ft 151 kts 71°
2026-04-24 17:04 45.63103 12.12817 925 ft 148 kts 72°
2026-04-24 17:04 45.63817 12.15502 511 ft 145 kts 71°
2026-04-24 17:04 45.64163 12.16815 322 ft 138 kts 72°
2026-04-24 17:05 45.64491 12.18046 115 ft 129 kts 73°
2026-04-24 17:05 45.64785 12.19166 59 ft 107 kts 69°
2026-04-24 17:05 45.65101 12.20355 58 ft 30 kts 69°
2026-04-24 17:06 45.65171 12.20616 61 ft 20 kts 69°
2026-04-24 17:06 45.65272 12.20782 56 ft 9 kts 339°
2026-04-24 17:06 45.65330 12.20751 62 ft 9 kts 339°
2026-04-24 17:07 45.65360 12.20735 61 ft 6 kts 338°
2026-04-24 17:07 45.65379 12.20672 59 ft 6 kts 258°
2026-04-24 17:07 45.65352 12.20568 60 ft 6 kts 249°
2026-04-24 17:08 45.65374 12.20495 60 ft 3 kts 338°
2026-04-24 17:08 45.65393 12.20485 56 ft 3 kts 340°
2026-04-24 17:08 45.65398 12.20482 54 ft 0 kts 339°